アトラス彗星

C/2021 S1 ( ATLAS )

English version
Home page
Updated on January 20, 2022

---------------------------------------------------------------------

・ プロフィール

発見日 2021年9月27日
発見光度 17.8等
発見者 Asteroid Terrestrial-Impact Last Alert System (ATLAS) search program

・ 写真集

・ 軌道要素

Epoch 2022 Jan. 21.0 TT = JDT 2459600.5
T 2022 Mar. 1.19617 TT                                  Rudenko
q   6.1188182            (2000.0)            P               Q
z  -0.0001297      Peri.  148.21355     -0.14271033     -0.71522750
 +/-0.0000462      Node   299.87145     +0.65883915     +0.44720112
e   1.0007935      Incl.   52.09095     +0.73862354     -0.53708545
From 185 observations 2021 Sept. 27-Dec. 16, mean residual 0".4.

・ 光度変化

        m1 = 6.5 + 5 logΔ + 10.0 log r

---------------------------------------------------------------------

軌道要素はM.P.E.C. 2022-A21に掲載されたものです。
光度グラフはComet for Windowsで作成したものです。

---------------------------------------------------------------------

Copyright(C) Seiichi Yoshida (comet@aerith.net). All rights reserved.